Location: Gebenbach
(49.5378°N, 11.8735°E)
Time: 08:12:09
(UTC+00:00)

Cosmos 1331 Rocket - Visible Passes

Search period start: 05 March 2021 00:00
Search period end: 15 March 2021 00:00
Orbit: 750 x 777 km, 74.0° (Epoch: 04 March)

Date Brightness Start Highest point End Pass type
(mag) Time Alt. Az. Time Alt. Az. Time Alt. Az.
05 Mar 6.3 18:04:04 10° WSW 18:08:22 25° NW 18:12:39 10° N visible
07 Mar 6.8 18:31:55 10° WNW 18:34:21 13° NW 18:36:47 10° NNW visible
08 Mar 6.6 17:51:49 10° W 17:55:29 19° NW 17:59:08 10° N visible
10 Mar 7.0 00:10:33 10° N 00:10:34 10° N 00:10:34 10° N visible
10 Mar 7.0 23:32:33 10° N 23:32:48 11° N 23:32:48 11° N visible
11 Mar 6.6 17:39:54 10° WNW 17:42:40 14° NW 17:45:27 10° N visible
11 Mar 7.0 22:54:47 10° N 22:55:02 11° N 22:55:02 11° N visible
12 Mar 6.9 23:57:12 10° NNW 23:57:27 11° NNW 23:57:27 11° NNW visible
13 Mar 6.8 23:19:05 10° N 23:19:41 13° N 23:19:41 13° N visible
14 Mar 6.8 22:41:07 10° N 22:41:57 13° N 22:41:57 13° N visible
